Погода в Ланьчжоу

Китай     36°05′18″N   103°41′19″E
темп.,
°C
ветер,
м/с
пор.,
м/с
влажн.,
%
обл.,
%
осадки,
мм/ч
давл.,
гПа
погр.,
м
17 сентября, пт
пт1723:00+17вюв2257100 0.0 1013334
02:00+16св1165100 0.0 1013244
05:00+16св1169100 0.1 1013262
08:00+16ю226846 0.3 1014350
11:00+18зсз115497 0.7 1013880
14:00+21св2242100 0.9 10091663
17:00+21всв4434100 0.0 10071833
20:00+20вюв3441100 0.0 1008613
18 сентября, сб
сб1823:00+18в0153100 0.1 1010349
02:00+16ю2359100 0.8 1012558
05:00+13юз3370100 1.0 1014389
08:00+11ю3380100 3.6 1017389
11:00+12юз2273100 2.0 1018417
14:00+15з1153100 2.1 10151280
17:00+17сз2346100 0.0 10141466
20:00+16юз2252100 0.0 1014534
19 сентября, вс
вс1923:00+14ююз22592 0.0 1016154
02:00+13ююз226083 0.0 1015106
05:00+13с016196 0.0 1015219
08:00+14зюз1158100 0.1 1016113
11:00+12ю2373100 2.3 1020200
14:00+18ссз133877 2.4 10151113
17:00+19ссз353383 0.0 10131899
20:00+15зюз1348100 0.6 1016224
20 сентября, пн
пн2023:00+15зюз1246100 0.1 1017342
02:00+13ююз335315 0.1 1016157
05:00+13ююз225351 0.0 1016109
08:00+12ююз335765 0.0 1017156
11:00+17юз23390 0.0 1015620
14:00+21з25250 0.0 10112073
17:00+22з36200 0.0 10082091
20:00+20ююв22270 0.0 1008103
21 сентября, вт
вт2123:00+18св11300 0.0 101047
02:00+17юв22310 0.0 101017
05:00+16зюз11330 0.0 101014
08:00+15юз22380 0.0 101275
11:00+19юз12291 0.0 1010784
14:00+23св13240 0.0 10061513
17:00+24всв332384 0.0 10041314
20:00+21в2332100 0.0 1004285